[[{"header":{"parameterUnit":"m.s-1","parameterCategory":1,"la1":30.2991,"la2":30.254,"lo1":-89.0895,"lo2":-89.0444,"dy":0.0017,"dx":0.0017,"nx":28,"ny":28,"refTime":"2024-05-12T09:00:00:Z","depth":0,"parameterNumber":2,"parameterNumberName":"U-component_of_WINDS"},"data":[0,0,0,0,0,0,0,0,0,0,0,0,0,0,0,0,0,0,0,0,0,0,0,0,0,0,0,0,0,0,0,0,0,0,0,0,0,0,0,0,0,0,0,0,0,0,0,0,0,0,0,0,0,0,0,0,0,0,0.7302,0.7301,0,0.7187,0.7185,0.7184,0.7103,0.7103,0.7102,0.7101,0.6979,0.6977,0.6974,0,0,0,0,0,0,0,0,0,0,0,0,0,0.745,0.7448,0.7303,0.7301,0.73,0.7187,0.7185,0.7184,0.7103,0.7103,0.7102,0.7101,0.698,0.6977,0.6974,0,0,0,0,0,0,0,0,0,0,0,0,0,0.7365,0.7447,0.7303,0.7246,0.724,0.7187,0.7185,0.7183,0.7103,0.7103,0.7102,0.7101,0.6981,0.6978,0.6974,0.6967,0,0,0.6961,0.696,0,0,0,0,0,0,0,0,0.737,0.736,0.7256,0.725,0.7243,0.7159,0.7192,0.7111,0.7104,0.7155,0.7101,0.71,0.704,0.7031,0.7011,0.6961,0.6956,0.6961,0.6958,0.6957,0.6956,0,0,0,0,0,0,0,0.7376,0.7364,0.7257,0.7254,0.7246,0.7225,0.7212,0.7177,0.7104,0.7151,0.7144,0.7132,0.7036,0.7015,0.7007,0.6954,0.6961,0.6957,0.6955,0.6953,0.6891,0.6892,0,0,0,0,0,0,0.7391,0.737,0.726,0.7253,0.7306,0.7223,0.7208,0.7186,0.7104,0.7091,0.7133,0.7129,0.7022,0.7012,0.7003,0.6988,0.6957,0.6953,0.6951,0.6891,0.6892,0.6892,0,0,0,0,0,0,0.7395,0.7382,0.7265,0.731,0.7293,0.7222,0.7197,0.7185,0.7164,0.7091,0.7077,0.7125,0.7021,0.7008,0.6976,0.6983,0.6951,0.6948,0.689,0.6891,0.6892,0.696,0,0,0,0,0,0,0.7399,0.7384,0.7382,0.731,0.7291,0.7242,0.7198,0.7183,0.7157,0.7151,0.708,0.7067,0.7019,0.6983,0.6972,0.6977,0.6944,0.6889,0.689,0.6892,0.6957,0.6964,0.6969,0,0,0,0,0,0.7405,0.7405,0.7382,0.737,0.7287,0.7242,0.7231,0.7177,0.7158,0.7155,0.7108,0.7069,0.6984,0.698,0.6968,0.6971,0.6888,0.689,0.6892,0.6954,0.6962,0.6969,0,0,0,0,0,0,0.7479,0.7395,0.7368,0.7346,0.7302,0.7229,0.7223,0.7188,0.7147,0.7143,0.7076,0.7061,0.7035,0.7,0.6997,0.696,0.6931,0.6931,0.6983,0.699,0.6996,0.7005,0.6941,0,0,0,0,0,0.7493,0.7465,0.7392,0.738,0.7359,0.7295,0.7274,0.7236,0.7187,0.7168,0.7118,0.7071,0.7034,0.701,0.6972,0.6952,0.6934,0.6948,0.6954,0.696,0.6959,0.6944,0.6949,0.6898,0.6898,0.6898,0,0,0.752,0.7471,0.7457,0.7393,0.7355,0.7325,0.728,0.7251,0.7228,0.7163,0.7129,0.7092,0.7035,0.7008,0.6994,0.6978,0.697,0.6962,0.6967,0.6963,0.6947,0.6952,0.6956,0.6899,0.6899,0.6899,0,0,0.7556,0.7517,0.7501,0.7464,0.7406,0.7364,0.736,0.7292,0.7264,0.723,0.718,0.7151,0.7088,0.7049,0.7021,0.7042,0.7005,0.7031,0.7062,0.7049,0.7053,0.7056,0.7061,0.7064,0.7032,0.7032,0.7032,0,0.7597,0.7553,0.7497,0.7471,0.7444,0.7384,0.7367,0.7333,0.7265,0.7247,0.723,0.7149,0.7107,0.707,0.7075,0.7055,0.7047,0.7038,0.7057,0.7059,0.7062,0.7066,0.7069,0.7035,0.7035,0.7034,0.7034,0,0.7606,0.7576,0.757,0.7507,0.7479,0.7457,0.7397,0.7375,0.734,0.7298,0.7263,0.721,0.7159,0.7148,0.7113,0.7105,0.7097,0.707,0.704,0.7071,0.7074,0.7075,0.704,0.7039,0.7038,0.7037,0,0,0.7684,0.7591,0.7589,0.756,0.7492,0.7467,0.7442,0.7393,0.7374,0.733,0.7306,0.7254,0.7228,0.7197,0.7157,0.7145,0.7162,0.7118,0.7116,0.7127,0.7148,0.7169,0.7172,0.7138,0.7138,0.7138,0.7153,0,0.7708,0.7662,0.761,0.7581,0.7551,0.7494,0.7472,0.7427,0.7388,0.7356,0.7312,0.7276,0.7245,0.7225,0.7211,0.7163,0.7165,0.7162,0.7113,0.7112,0.7128,0.7173,0.7194,0.7211,0.7154,0.7154,0.7154,0,0.7729,0.7689,0.7657,0.7591,0.7576,0.7558,0.7508,0.7479,0.7426,0.7398,0.7363,0.7321,0.729,0.7265,0.722,0.7219,0.7196,0.7169,0.7169,0.7161,0.7134,0.7165,0.7215,0.7217,0.7156,0.7156,0.7155,0,0.7787,0.7724,0.7697,0.7673,0.7596,0.7584,0.7551,0.7498,0.7471,0.7428,0.7409,0.7363,0.7337,0.7301,0.7246,0.7233,0.7207,0.7178,0.7181,0.7182,0.7177,0.7178,0.7222,0.7165,0.7165,0.7165,0.7165,0,0.7819,0.7801,0.7722,0.7705,0.7683,0.7623,0.7603,0.7564,0.7517,0.749,0.7438,0.7414,0.7344,0.7311,0.7268,0.7236,0.7225,0.7201,0.7189,0.7204,0.7207,0.7187,0.7184,0.7166,0.7166,0.7165,0.7165,0,0.7879,0.7826,0.7791,0.7722,0.7703,0.769,0.7629,0.7609,0.7567,0.7534,0.7522,0.7456,0.7414,0.7356,0.7297,0.7268,0.7242,0.7224,0.726,0.7253,0.7259,0.7258,0.7291,0.7291,0.7236,0.7237,0.7237,0,0.7902,0.7887,0.7815,0.7794,0.7763,0.773,0.7703,0.7644,0.7617,0.7556,0.7543,0.7498,0.7458,0.7394,0.7339,0.7292,0.7273,0.7287,0.7265,0.7281,0.7271,0.7272,0.7269,0.7292,0.7293,0.7294,0.7294,0,0.7947,0.7921,0.7885,0.7839,0.7809,0.777,0.7728,0.7713,0.7645,0.7618,0.7575,0.7544,0.7483,0.7438,0.7384,0.7348,0.7309,0.7302,0.73,0.7315,0.7335,0.7322,0.7273,0.7301,0.73,0.73,0.73,0.7299,0.7987,0.7971,0.7918,0.7879,0.7842,0.7804,0.7782,0.7737,0.7701,0.7648,0.7615,0.7573,0.7519,0.7443,0.7409,0.7374,0.7359,0.7357,0.7356,0.7356,0.736,0.7342,0.7365,0.7364,0.7364,0.7364,0.7364,0,0.8028,0.7992,0.7957,0.79,0.7869,0.7837,0.7789,0.7765,0.7729,0.7683,0.7645,0.7595,0.7551,0.7493,0.7444,0.7428,0.7408,0.7417,0.7416,0.7408,0.7378,0.7383,0.7433,0.7433,0.7433,0.7433,0.7433,0.7433,0.8046,0.8016,0.7984,0.7935,0.7897,0.7857,0.7832,0.7796,0.7759,0.7706,0.767,0.7633,0.7581,0.7528,0.7485,0.7469,0.7453,0.7466,0.7445,0.7417,0.7411,0.7405,0.741,0.7464,0.7464,0.7478,0.7478,0.7478]},{"header":{"parameterUnit":"m.s-1","parameterCategory":1,"la1":30.2991,"la2":30.254,"lo1":-89.0895,"lo2":-89.0444,"dy":0.0017,"dx":0.0017,"nx":28,"ny":28,"refTime":"2024-05-12T09:00:00:Z","depth":0,"parameterNumber":3,"parameterNumberName":"V-component_of_WINDS"},"data":[0,0,0,0,0,0,0,0,0,0,0,0,0,0,0,0,0,0,0,0,0,0,0,0,0,0,0,0,0,0,0,0,0,0,0,0,0,0,0,0,0,0,0,0,0,0,0,0,0,0,0,0,0,0,0,0,0,0,7.5177,7.5178,0,7.5277,7.5278,7.5279,7.5166,7.5162,7.5158,7.5154,7.5251,7.5257,7.5264,0,0,0,0,0,0,0,0,0,0,0,0,0,7.4881,7.4887,7.5177,7.5178,7.5179,7.5277,7.5278,7.528,7.5167,7.5162,7.5157,7.5152,7.5249,7.5256,7.5264,0,0,0,0,0,0,0,0,0,0,0,0,0,7.4998,7.4889,7.5176,7.5135,7.5132,7.5277,7.5278,7.528,7.5168,7.5162,7.5155,7.5149,7.5246,7.5256,7.5265,7.5454,0,0,7.5295,7.53,0,0,0,0,0,0,0,0,7.4991,7.5009,7.514,7.5138,7.5135,7.5203,7.5209,7.5338,7.517,7.5154,7.5154,7.5146,7.524,7.525,7.5282,7.5458,7.5462,7.5296,7.5302,7.5306,7.5309,0,0,0,0,0,0,0,7.4983,7.5004,7.5216,7.5142,7.5139,7.5109,7.5119,7.5233,7.5231,7.5155,7.5147,7.5161,7.5237,7.5273,7.5284,7.5464,7.5296,7.5305,7.5311,7.5315,7.5797,7.5804,0,0,0,0,0,0,7.4981,7.4998,7.5213,7.5219,7.5046,7.512,7.513,7.5187,7.523,7.523,7.5166,7.5155,7.5259,7.5272,7.5287,7.5509,7.5306,7.5316,7.5321,7.579,7.5799,7.5806,0,0,0,0,0,0,7.4975,7.5001,7.5209,7.5106,7.5131,7.5132,7.5197,7.5193,7.5229,7.5238,7.5237,7.5204,7.5255,7.5273,7.5413,7.5511,7.532,7.5329,7.5782,7.5793,7.5803,7.5956,0,0,0,0,0,0,7.4967,7.5,7.5073,7.5109,7.5137,7.5336,7.5203,7.5199,7.5247,7.5233,7.5273,7.5274,7.5251,7.5399,7.5423,7.5521,7.5337,7.5773,7.5787,7.5799,7.5942,7.5971,7.5995,0,0,0,0,0,7.4957,7.5111,7.5077,7.5104,7.5229,7.5342,7.5357,7.533,7.5255,7.5327,7.5333,7.5272,7.5496,7.5414,7.544,7.5543,7.5767,7.5783,7.5798,7.5931,7.5965,7.5994,0,0,0,0,0,0,7.5085,7.5115,7.5078,7.5249,7.5294,7.5323,7.5413,7.5368,7.5433,7.5418,7.5379,7.5389,7.5539,7.5554,7.5462,7.5726,7.5619,7.5641,7.5711,7.5744,7.5769,7.5762,7.5345,0,0,0,0,0,7.5133,7.5225,7.5246,7.5394,7.5419,7.5413,7.5461,7.5437,7.5481,7.5499,7.5515,7.5558,7.5638,7.5691,7.5766,7.5944,7.595,7.6027,7.6053,7.6075,7.6094,7.6188,7.6222,7.5858,7.5857,7.5857,0,0,7.5234,7.5261,7.5321,7.5421,7.5453,7.5547,7.543,7.5534,7.5602,7.5513,7.5648,7.5661,7.5707,7.5867,7.5938,7.5884,7.6196,7.6094,7.6112,7.6119,7.6207,7.6242,7.6273,7.5868,7.5866,7.5865,0,0,7.5464,7.5496,7.5623,7.5658,7.5708,7.5703,7.5733,7.5769,7.5775,7.5909,7.5845,7.5924,7.6063,7.6098,7.6134,7.6378,7.6324,7.6403,7.654,7.6632,7.6661,7.6686,7.6772,7.6804,7.6422,7.6422,7.6422,0,7.5582,7.5724,7.5693,7.5803,7.5848,7.5773,7.5901,7.5935,7.6006,7.6038,7.5977,7.615,7.6175,7.6342,7.6402,7.6434,7.6466,7.6398,7.6659,7.6684,7.6707,7.6789,7.6822,7.6431,7.643,7.6429,7.6429,0,7.5865,7.5964,7.606,7.6134,7.6189,7.6307,7.6292,7.6352,7.6322,7.6322,7.6459,7.6487,7.6565,7.6602,7.6574,7.6765,7.673,7.6666,7.6557,7.6752,7.6828,7.6859,7.6445,7.6441,7.6439,7.6436,0,0,7.6181,7.6235,7.6271,7.6303,7.6353,7.6427,7.6541,7.6619,7.667,7.6721,7.6814,7.6934,7.6874,7.6915,7.6889,7.697,7.7161,7.6895,7.6895,7.6943,7.7372,7.7421,7.7458,7.7125,7.7131,7.7135,7.7368,0,7.6412,7.6611,7.6587,7.6777,7.6866,7.6797,7.6895,7.6935,7.6938,7.7013,7.7015,7.71,7.7015,7.7039,7.7116,7.7121,7.7246,7.7104,7.721,7.7214,7.7201,7.7498,7.755,7.7768,7.7398,7.7403,7.7406,0,7.6709,7.6774,7.6973,7.7008,7.7045,7.7134,7.7204,7.7277,7.732,7.7316,7.7362,7.7322,7.7433,7.7323,7.7474,7.7378,7.742,7.7429,7.7436,7.7445,7.7322,7.7514,7.7837,7.787,7.7453,7.7449,7.7446,0,7.6919,7.7055,7.7191,7.7221,7.7265,7.733,7.7351,7.7388,7.7436,7.7496,7.7526,7.7598,7.7637,7.7692,7.7671,7.7593,7.7827,7.7715,7.7826,7.7827,7.7878,7.7876,7.8213,7.7906,7.7905,7.7905,7.7904,0,7.718,7.7305,7.7286,7.737,7.7507,7.7476,7.7612,7.7624,7.7657,7.7741,7.7683,7.7763,7.773,7.7807,7.7791,7.7919,7.7937,7.7935,7.793,7.7941,7.7941,7.7968,7.7952,7.7913,7.7911,7.791,7.7908,0,7.7438,7.743,7.7575,7.7605,7.7616,7.7715,7.774,7.7818,7.7816,7.7923,7.7946,7.7943,7.803,7.8015,7.811,7.8099,7.8259,7.8235,7.8246,7.824,7.8352,7.8341,7.8717,7.8765,7.8428,7.8431,7.8433,0,7.7605,7.77,7.7741,7.7794,7.782,7.7906,7.7955,7.7928,7.7982,7.8037,7.8108,7.819,7.8255,7.8397,7.8402,7.8474,7.8451,7.8578,7.8461,7.847,7.8453,7.8448,7.8456,7.8601,7.8605,7.8608,7.861,0,7.7903,7.7895,7.7969,7.8043,7.8104,7.816,7.821,7.8256,7.8233,7.8296,7.8385,7.8435,7.8533,7.8615,7.8683,7.8702,7.8653,7.8647,7.8676,7.8689,7.8691,7.8691,7.8309,7.8638,7.8636,7.8634,7.8632,7.8631,7.812,7.8201,7.8243,7.8327,7.8363,7.8411,7.8485,7.8494,7.8568,7.8648,7.8626,7.8727,7.8766,7.8852,7.8879,7.8956,7.8908,7.8951,7.8962,7.8973,7.8987,7.8679,7.8968,7.8967,7.8966,7.8965,7.8965,0,7.8415,7.8439,7.8517,7.859,7.8656,7.8605,7.8658,7.8716,7.8806,7.8848,7.8913,7.9015,7.9093,7.9105,7.9179,7.9239,7.9218,7.9259,7.9254,7.926,7.9025,7.8992,7.9275,7.9275,7.9275,7.9275,7.9275,7.9275,7.8576,7.871,7.8706,7.8856,7.8877,7.8978,7.9012,7.9055,7.9088,7.9205,7.9271,7.9279,7.9307,7.9383,7.9453,7.9454,7.9484,7.9534,7.9526,7.9307,7.9276,7.9247,7.9216,7.9541,7.9541,7.9755,7.9757,7.9758]}]]